Location: Neuvy Saint Sepulchre
(46.5953°N, 1.8122°E)
Time: 21:53:06
(UTC+01:00)

ISS - Pass Details

Date: 24 November 2019
Orbit: 411 x 421 km, 51.6° (Epoch: 11 December)

Event Time Altitude Azimuth Distance (km) Brightness Sun altitude
Rises 18:22:13 0° 217° (SW) 2,343 1.0 -12.0°
Reaches altitude 10° 18:24:24 10° 208° (SSW) 1,486 -0.3 -12.3°
Maximum altitude 18:27:26 33° 142° (SE) 729 -2.7 -12.8°
Enters shadow 18:28:56 22° 95° (E) 970 -2.5 -13.1°
